Regional Weather Roundup
Issued by NWS Wilmington, NC

Home | Current Version | Previous Version | Text Only | Print | Product List | Glossary On
Versions: 1 2 3 4 5 6 7 8 9 10 11 12 13 14 15 16 17 18 19 20 21 22 23 24 25 26 27 28 29 30 31 32 33 34 35 36 37 38 39 40 41 42 43 44 45 46 47 48 49 50
000
ASUS42 KILM 271010
RWRILM
RWRILM
REGIONAL HOURLY WEATHER ROUNDUP
NATIONAL WEATHER SERVICE WILMINGTON NC
500 AM EST TUE JAN 27 2015

NOTE: "FAIR" INDICATES FEW OR NO CLOUDS BELOW 12,000 FEET WITH NO
SIGNIFICANT WEATHER AND/OR OBSTRUCTIONS TO VISIBILITY.

...............WFO WILMINGTON COUNTY WARNING AREA...............

......COASTAL NC AND SC COUNTIES......

CITY           SKY/WX    TMP DP  RH WIND       PRES   REMARKS
WILMINGTON     CLOUDY    43  38  82 NW16      29.70R
SOUTHPORT      CLOUDY    43  37  78 NW12G17   29.71R
N MYRTLE BEACH PTCLDY    40  30  67 VRB7      29.74R
MYRTLE BEACH   CLEAR     39  28  65 W10       29.78R WCI  32

......INLAND NC AND SC COUNTIES.......

CITY           SKY/WX    TMP DP  RH WIND       PRES   REMARKS
LUMBERTON      CLOUDY    40  27  59 NW13      29.75R WCI  32
ELIZABETHTOWN  CLOUDY    40  32  71 NW6G17    29.73R
WHITEVILLE     CLOUDY    41  30  63 W7        29.73R
FLORENCE       MOCLDY    37  25  61 W8        29.78R WCI  31
DARLINGTON     CLEAR     34  23  64 W6        29.79R WCI  29

....................REST OF NORTH CAROLINA......................

.........EASTERN NC.........

CITY           SKY/WX    TMP DP  RH WIND       PRES   REMARKS
CAPE HATTERAS  CLOUDY    37  34  89 N10G20    29.63R WCI  30
JACKSONVILLE   CLOUDY    39  30  70 N9G17     29.71R WCI  33
MOREHEAD CITY  CLOUDY    41  37  86 NW17      29.66R
KENANSVILLE    CLOUDY    38  36  91 N8        29.73R WCI  32
NEW BERN       CLOUDY    42  33  70 NW13G18   29.69R
ELIZABETH CITY CLOUDY    33  29  85 NW15      29.67R WCI  23

.........CENTRAL NC.........

CITY           SKY/WX    TMP DP  RH WIND       PRES   REMARKS
RALEIGH DURHAM FLURRIES  34  29  82 CALM      29.74R
ROCKY MOUNT    CLOUDY    36  28  73 N13       29.73R WCI  27
ROANOKE RAPIDS NOT AVBL
FAYETTEVILLE   CLOUDY    40  26  57 NW13      29.73S WCI  32
HOFFMAN        MOCLDY    37  25  64 NW7       29.77S WCI  31

.........WESTERN NC.........

CITY           SKY/WX    TMP DP  RH WIND       PRES   REMARKS
CHARLOTTE      CLEAR     31  18  58 NW7       29.78R WCI  24
GREENSBORO     PTCLDY    28  16  60 NW7       29.74R WCI  21
HICKORY        NOT AVBL
BOONE          NOT AVBL
ASHEVILLE      NOT AVBL

.....................REST OF SOUTH CAROLINA.....................

.........EASTERN SC.........

CITY           SKY/WX    TMP DP  RH WIND       PRES   REMARKS
CHARLESTON     CLEAR     37  29  72 W10       29.83R WCI  30
BEAUFORT MCAS  CLEAR     37  29  72 W8        29.86R WCI  31
HILTON HEAD    NOT AVBL

.........CENTRAL SC.........

CITY           SKY/WX    TMP DP  RH WIND       PRES   REMARKS
COLUMBIA       CLEAR     32  25  75 W7        29.82S WCI  26
ORANGEBURG     CLEAR     35  25  66 W9        29.82S WCI  28
SUMTER SHAW    CLEAR     33  23  66 W6        29.79R WCI  28

.........WESTERN SC.........

CITY           SKY/WX    TMP DP  RH WIND       PRES   REMARKS
GREENVILLE     NOT AVBL
ROCK HILL      CLEAR     30  19  63 NW6       29.78S WCI  24
ANDERSON       MOCLDY    30  25  81 CALM      29.81F
CLEMSON        NOT AVBL
GREENWOOD      CLEAR     28  23  81 W3        29.83S


...................COASTAL AND OFFSHORE REPORTS..................

................LOCAL PIERS AND NC RESERVE................


STATION/POSITION TIME  SKY/WX   TEMP    WIND        PRES    VSBY
                                AIR SEA DIR/SP/G
                 (UTC)          (F)     (DEG/KT/KT) (MB)    (MI)
JOHNY MRCER PIER 1000            44 53  340/ 14/ 18 1004.6R
NC RESRV MASNBRO 0900            45     340/  2     1005.0S
OCEAN CREST PIER 1000            43 52  270/ 14/ 18 1004.9R
SPRINGMAID  PIER 1000            40 51  290/ 10/ 14 1007.5R


................COASTAL AND OFFSHORE BUOYS................


STATION/POSITION TIME  SKY/WX   TEMP    WIND        PRES    VSBY
                                AIR SEA DIR/SP/G
                 (UTC)          (F)     (DEG/KT/KT) (MB)    (MI)
DIMNDSHOAL 41025 1000            43 66  330/ 23/ 31 1001.8R
WVE H/P(F/S)=  7/ 5 WND WVE H/P(F/S)=  7/ 5 SWL H/P/D(F/S/D)=  2/ 20/10

CAPE LOOKOUT     0900            43     340/ 19/ 24 1003.0S
ONSLOW BAY 41036 NOT AVBL
5 WRITEBCH 41038 0900            46 53  340/ 16/ 19 1004.8R
MASONBORO  41110 1000               53                N/A
WVE H/P(F/S)=  2/ 7 WND WVE H/P(F/S)=  2/ 7

WILM HARBR 41108 1000               53                N/A
WVE H/P(F/S)=  5/ 7 WND WVE H/P(F/S)=  5/ 7

27WRITEBCH 41037 NOT AVBL
FRYING PAN 41013 1000            49 66  300/ 21/ 25 1005.3R
WVE H/P(F/S)=  7/ 8 WND WVE H/P(F/S)=  5/ 5 SWL H/P/D(F/S/D)=  3/210/ 8

SUNST NRSH 41024 0900            45     320/ 17/ 19   N/A
CAPRS NRSH 41029 0900            42     310/ 19/ 21   N/A
EDISTO     41004 1000            47 68  310/ 27/ 33 1007.4R
WVE H/P(F/S)=  8/ 6 WND WVE H/P(F/S)=  8/ 6 SWL H/P/D(F/S/D)=  2/14



..........OFFSHORE BUOYS BEYOND 100 NM OFFSHORE...........
.....IN A TRIANGLE---HAT TO BERMUDA TO BAHAMAS TO HAT.....


STATION/POSITION TIME  SKY/WX   TEMP    WIND        PRES    VSBY
                                AIR SEA DIR/SP/G
                 (UTC)          (F)     (DEG/KT/KT) (MB)    (MI)
150E HAT   41001 NOT AVBL
W BERMUDA  41048 0922            66 72  250/ 29/ 35  999.4R
WVE H/P(F/S)= 16/10 WND WVE H/P(F/S)= 10/ 6 SWL H/P/D(F/S/D)= 13/260/10

ATLANTIC S 41049 0937            76 75  200/ 21/ 27 1011.4S
WVE H/P(F/S)=  8/ 7 WND WVE H/P(F/S)=  8/ 7 SWL H/P/D(F/S/D)=  3/280/10

E BAHAMAS  41046 0855            78 79  210/ 17/ 23 1011.3R
WVE H/P(F/S)=  7/ 6 WND WVE H/P(F/S)=  7/ 6 SWL H/P/D(F/S/D)=  3/ 10/ 9

NE BAHAMAS 41047 0945            73 76  260/ 27/ 35 1006.7F
WVE H/P(F/S)= 15/ 9 WND WVE H/P(F/S)= 15/ 9

120E CANVRL41010 1000            62 76  300/ 25/ 35 1009.7R
WVE H/P(F/S)= 13/ 9 WND WVE H/P(F/S)= 10/ 7 SWL H/P/D(F/S/D)=  8/320/ 9


END


USA.gov is the U.S. government's official web portal to all federal, state and local government web resources and services.